Precipitable_Water
0.84 0.68 0.62 0.59 0.62 0.67 0.71 0.67 0.59 0.56 0.50 0.43 0.38 0.31 0.28 0.28 0.27 0.30 0.31 0.32 0.33 0.28 0.26 0.26 0.26 0.25 0.25 0.24 0.23 0.24 0.24 0.22 0.21 0.20 0.19 0.19 0.20 0.21 0.20 0.20 0.21 0.24 0.24 0.30 0.36 0.42 0.45 0.49 0.53 0.56 0.58 0.59 0.65 0.68 0.70 0.71 0.72 0.73 0.72 0.72 0.69 0.74 0.78 0.78 0.77 0.78 0.77 0.73 0.75 0.77 0.74 0.69 0.74 0.77 0.82 0.84 0.87 0.88 0.90 0.91 0.92 0.93 0.94 0.95 0.95 0.94
0.80 0.65 0.62 0.65 0.71 0.73 0.74 0.69 0.61 0.55 0.49 0.43 0.37 0.32 0.28 0.28 0.26 0.29 0.29 0.33 0.34 0.28 0.26 0.28 0.28 0.27 0.27 0.25 0.24 0.25 0.23 0.20 0.20 0.19 0.18 0.18 0.18 0.19 0.19 0.19 0.20 0.21 0.26 0.31 0.34 0.39 0.45 0.49 0.53 0.56 0.58 0.59 0.57 0.62 0.67 0.66 0.68 0.70 0.73 0.70 0.69 0.75 0.76 0.76 0.76 0.75 0.76 0.75 0.71 0.66 0.64 0.67 0.71 0.74 0.75 0.75 0.81 0.84 0.89 0.91 0.91 0.91 0.92 0.93 0.94 0.95
0.62 0.57 0.63 0.72 0.78 0.79 0.76 0.68 0.59 0.53 0.47 0.43 0.36 0.32 0.28 0.27 0.29 0.31 0.31 0.33 0.33 0.29 0.26 0.28 0.26 0.26 0.28 0.27 0.26 0.25 0.22 0.21 0.21 0.20 0.19 0.18 0.18 0.18 0.18 0.18 0.19 0.21 0.23 0.26 0.29 0.34 0.38 0.44 0.49 0.53 0.55 0.58 0.58 0.57 0.59 0.62 0.65 0.68 0.70 0.70 0.71 0.72 0.72 0.74 0.76 0.77 0.72 0.76 0.77 0.75 0.72 0.71 0.71 0.80 0.82 0.83 0.85 0.87 0.87 0.89 0.91 0.93 0.93 0.93 0.93 0.95
0.50 0.57 0.70 0.77 0.79 0.75 0.70 0.65 0.56 0.50 0.47 0.42 0.37 0.30 0.26 0.29 0.26 0.24 0.29 0.32 0.31 0.29 0.26 0.29 0.27 0.27 0.29 0.29 0.28 0.27 0.25 0.23 0.23 0.22 0.21 0.21 0.19 0.18 0.17 0.18 0.18 0.18 0.19 0.20 0.22 0.25 0.33 0.38 0.44 0.49 0.51 0.54 0.58 0.59 0.60 0.61 0.62 0.65 0.66 0.68 0.69 0.70 0.72 0.72 0.74 0.75 0.77 0.79 0.81 0.82 0.80 0.79 0.77 0.73 0.80 0.83 0.87 0.87 0.86 0.83 0.89 0.92 0.93 0.94 0.94 0.95
0.52 0.60 0.74 0.76 0.76 0.73 0.66 0.62 0.53 0.47 0.43 0.43 0.37 0.31 0.28 0.29 0.29 0.27 0.27 0.30 0.31 0.31 0.31 0.30 0.28 0.26 0.27 0.26 0.26 0.27 0.27 0.24 0.23 0.22 0.22 0.21 0.20 0.20 0.20 0.19 0.20 0.18 0.18 0.18 0.20 0.22 0.27 0.32 0.37 0.42 0.46 0.52 0.53 0.55 0.56 0.57 0.58 0.60 0.61 0.63 0.66 0.67 0.69 0.71 0.73 0.75 0.78 0.80 0.79 0.80 0.82 0.83 0.81 0.80 0.77 0.77 0.75 0.79 0.81 0.82 0.84 0.85 0.92 0.94 0.94 0.97
0.60 0.67 0.75 0.73 0.72 0.70 0.65 0.56 0.51 0.46 0.42 0.41 0.38 0.33 0.29 0.30 0.29 0.29 0.30 0.29 0.26 0.26 0.29 0.28 0.22 0.21 0.25 0.25 0.25 0.25 0.25 0.23 0.23 0.21 0.20 0.20 0.19 0.19 0.17 0.17 0.19 0.20 0.20 0.19 0.19 0.19 0.22 0.27 0.33 0.40 0.45 0.47 0.49 0.51 0.55 0.58 0.58 0.59 0.60 0.63 0.66 0.68 0.70 0.71 0.73 0.75 0.76 0.73 0.71 0.70 0.67 0.63 0.64 0.61 0.63 0.59 0.61 0.68 0.71 0.72 0.83 0.90 0.94 0.95 0.95 0.96
0.60 0.69 0.69 0.68 0.68 0.67 0.63 0.55 0.52 0.47 0.42 0.39 0.36 0.35 0.31 0.30 0.29 0.29 0.28 0.28 0.24 0.22 0.27 0.30 0.21 0.18 0.23 0.23 0.24 0.24 0.23 0.22 0.22 0.21 0.20 0.20 0.19 0.19 0.17 0.18 0.18 0.19 0.19 0.21 0.21 0.21 0.22 0.26 0.31 0.35 0.40 0.44 0.46 0.49 0.55 0.59 0.60 0.62 0.62 0.64 0.66 0.66 0.68 0.71 0.72 0.75 0.74 0.70 0.70 0.68 0.65 0.64 0.62 0.58 0.63 0.70 0.74 0.74 0.78 0.82 0.82 0.88 0.94 0.96 0.96 0.98
0.59 0.62 0.64 0.68 0.67 0.64 0.59 0.52 0.51 0.48 0.42 0.39 0.40 0.36 0.32 0.30 0.28 0.28 0.27 0.27 0.26 0.30 0.30 0.29 0.25 0.20 0.18 0.21 0.23 0.24 0.22 0.21 0.21 0.20 0.19 0.19 0.19 0.18 0.18 0.18 0.19 0.19 0.20 0.19 0.19 0.20 0.22 0.25 0.28 0.30 0.36 0.41 0.44 0.49 0.54 0.56 0.59 0.60 0.62 0.64 0.66 0.68 0.69 0.70 0.73 0.73 0.73 0.68 0.68 0.67 0.67 0.68 0.66 0.65 0.65 0.72 0.76 0.81 0.82 0.81 0.83 0.88 0.91 0.94 0.96 0.95
0.57 0.54 0.59 0.60 0.62 0.61 0.56 0.55 0.53 0.50 0.44 0.41 0.41 0.37 0.33 0.31 0.29 0.28 0.27 0.26 0.27 0.26 0.23 0.25 0.27 0.20 0.18 0.21 0.24 0.22 0.19 0.18 0.18 0.18 0.18 0.17 0.17 0.17 0.17 0.18 0.19 0.20 0.21 0.21 0.20 0.20 0.22 0.24 0.28 0.31 0.34 0.40 0.46 0.50 0.52 0.54 0.57 0.61 0.65 0.67 0.70 0.70 0.70 0.71 0.73 0.72 0.73 0.73 0.71 0.70 0.69 0.67 0.71 0.74 0.75 0.79 0.82 0.81 0.84 0.79 0.83 0.83 0.84 0.87 0.89 0.89
0.56 0.57 0.61 0.65 0.62 0.56 0.61 0.59 0.54 0.49 0.43 0.44 0.43 0.41 0.38 0.35 0.33 0.29 0.26 0.26 0.26 0.24 0.21 0.23 0.25 0.19 0.17 0.19 0.21 0.22 0.19 0.17 0.16 0.16 0.15 0.16 0.16 0.17 0.17 0.18 0.19 0.21 0.22 0.23 0.23 0.23 0.24 0.27 0.29 0.33 0.37 0.40 0.44 0.50 0.54 0.57 0.61 0.63 0.65 0.66 0.67 0.66 0.69 0.72 0.73 0.74 0.74 0.75 0.75 0.73 0.71 0.69 0.71 0.75 0.77 0.80 0.79 0.80 0.80 0.76 0.76 0.77 0.79 0.81 0.83 0.86
0.57 0.64 0.67 0.63 0.59 0.62 0.62 0.59 0.54 0.49 0.46 0.48 0.42 0.38 0.35 0.33 0.31 0.30 0.29 0.27 0.25 0.20 0.20 0.23 0.25 0.22 0.17 0.18 0.19 0.19 0.18 0.17 0.16 0.16 0.15 0.15 0.16 0.17 0.17 0.18 0.20 0.21 0.23 0.24 0.24 0.25 0.26 0.30 0.33 0.36 0.36 0.39 0.43 0.47 0.49 0.52 0.56 0.60 0.63 0.64 0.64 0.67 0.71 0.73 0.73 0.74 0.73 0.76 0.77 0.74 0.74 0.73 0.72 0.74 0.75 0.74 0.75 0.76 0.74 0.72 0.73 0.76 0.78 0.81 0.83 0.84
0.54 0.57 0.57 0.61 0.67 0.64 0.62 0.54 0.54 0.53 0.48 0.44 0.38 0.35 0.33 0.29 0.31 0.28 0.27 0.27 0.21 0.18 0.21 0.24 0.24 0.23 0.16 0.17 0.20 0.21 0.21 0.20 0.17 0.15 0.14 0.15 0.14 0.15 0.17 0.19 0.22 0.23 0.24 0.25 0.26 0.26 0.27 0.29 0.31 0.34 0.34 0.36 0.37 0.38 0.39 0.43 0.48 0.52 0.56 0.60 0.61 0.64 0.67 0.70 0.73 0.75 0.75 0.76 0.77 0.77 0.77 0.75 0.75 0.76 0.75 0.72 0.70 0.71 0.70 0.71 0.73 0.77 0.79 0.79 0.78 0.78
0.47 0.50 0.57 0.59 0.65 0.61 0.55 0.50 0.49 0.49 0.47 0.42 0.37 0.34 0.28 0.24 0.25 0.21 0.23 0.20 0.19 0.17 0.22 0.24 0.24 0.20 0.19 0.20 0.20 0.21 0.20 0.20 0.19 0.17 0.15 0.16 0.16 0.17 0.19 0.21 0.23 0.25 0.26 0.27 0.27 0.28 0.28 0.28 0.29 0.30 0.31 0.33 0.33 0.32 0.33 0.33 0.37 0.42 0.47 0.52 0.53 0.56 0.62 0.66 0.71 0.72 0.74 0.75 0.75 0.76 0.77 0.77 0.78 0.77 0.76 0.74 0.71 0.72 0.71 0.73 0.74 0.74 0.72 0.72 0.70 0.71
0.42 0.52 0.53 0.54 0.57 0.60 0.56 0.44 0.43 0.41 0.44 0.40 0.35 0.31 0.27 0.22 0.20 0.18 0.19 0.20 0.20 0.21 0.24 0.23 0.25 0.18 0.21 0.22 0.23 0.21 0.20 0.21 0.20 0.19 0.18 0.17 0.16 0.17 0.19 0.22 0.25 0.26 0.27 0.27 0.28 0.29 0.29 0.30 0.31 0.32 0.32 0.33 0.34 0.34 0.35 0.35 0.36 0.39 0.43 0.47 0.49 0.52 0.59 0.64 0.67 0.70 0.71 0.73 0.76 0.78 0.77 0.76 0.75 0.73 0.73 0.72 0.71 0.72 0.74 0.75 0.72 0.69 0.67 0.66 0.66 0.67
0.32 0.35 0.44 0.48 0.44 0.56 0.53 0.49 0.47 0.43 0.43 0.40 0.39 0.34 0.29 0.26 0.21 0.17 0.18 0.16 0.17 0.18 0.21 0.25 0.20 0.17 0.17 0.18 0.23 0.23 0.22 0.22 0.22 0.20 0.20 0.20 0.19 0.21 0.23 0.25 0.26 0.26 0.26 0.27 0.27 0.27 0.28 0.29 0.31 0.32 0.33 0.34 0.35 0.36 0.37 0.37 0.37 0.39 0.42 0.46 0.49 0.51 0.57 0.62 0.65 0.68 0.69 0.71 0.74 0.75 0.75 0.74 0.73 0.73 0.73 0.73 0.75 0.75 0.73 0.71 0.69 0.65 0.64 0.62 0.63 0.63
0.35 0.36 0.46 0.54 0.52 0.54 0.49 0.53 0.52 0.45 0.42 0.41 0.39 0.37 0.31 0.28 0.28 0.20 0.21 0.20 0.19 0.19 0.19 0.21 0.18 0.21 0.19 0.24 0.24 0.24 0.23 0.23 0.22 0.21 0.21 0.20 0.21 0.23 0.23 0.23 0.24 0.25 0.27 0.28 0.28 0.28 0.29 0.31 0.32 0.32 0.33 0.34 0.35 0.36 0.38 0.38 0.38 0.39 0.42 0.47 0.51 0.53 0.56 0.61 0.63 0.65 0.67 0.68 0.69 0.70 0.69 0.70 0.71 0.72 0.73 0.73 0.74 0.73 0.72 0.68 0.63 0.62 0.63 0.64 0.64 0.65
0.37 0.34 0.48 0.52 0.55 0.52 0.51 0.52 0.49 0.51 0.33 0.39 0.37 0.31 0.31 0.35 0.29 0.24 0.23 0.23 0.22 0.20 0.17 0.22 0.20 0.21 0.23 0.22 0.22 0.22 0.21 0.21 0.22 0.21 0.21 0.21 0.22 0.22 0.21 0.23 0.25 0.26 0.27 0.28 0.28 0.29 0.30 0.32 0.34 0.35 0.35 0.35 0.36 0.36 0.37 0.38 0.39 0.39 0.42 0.46 0.49 0.52 0.56 0.58 0.60 0.61 0.63 0.64 0.64 0.64 0.66 0.68 0.69 0.70 0.69 0.69 0.68 0.68 0.67 0.64 0.63 0.63 0.63 0.63 0.63 0.62
0.34 0.36 0.47 0.47 0.45 0.52 0.55 0.53 0.51 0.49 0.47 0.41 0.33 0.34 0.38 0.38 0.33 0.25 0.20 0.21 0.19 0.16 0.16 0.20 0.17 0.18 0.18 0.15 0.21 0.21 0.19 0.19 0.20 0.20 0.20 0.21 0.23 0.21 0.22 0.24 0.25 0.26 0.27 0.29 0.31 0.32 0.33 0.34 0.35 0.37 0.39 0.39 0.38 0.38 0.39 0.40 0.43 0.43 0.44 0.46 0.46 0.49 0.49 0.54 0.57 0.59 0.61 0.61 0.62 0.64 0.66 0.68 0.69 0.69 0.69 0.68 0.65 0.63 0.60 0.60 0.61 0.60 0.59 0.59 0.60 0.60
0.43 0.34 0.42 0.48 0.48 0.51 0.53 0.51 0.46 0.49 0.50 0.42 0.36 0.42 0.30 0.25 0.24 0.26 0.22 0.18 0.17 0.15 0.16 0.18 0.19 0.18 0.18 0.17 0.22 0.19 0.17 0.17 0.18 0.20 0.20 0.20 0.21 0.21 0.23 0.25 0.27 0.29 0.29 0.30 0.31 0.32 0.34 0.35 0.36 0.38 0.39 0.40 0.40 0.42 0.43 0.44 0.45 0.45 0.46 0.49 0.49 0.48 0.52 0.54 0.58 0.60 0.62 0.64 0.64 0.66 0.66 0.65 0.65 0.66 0.65 0.63 0.60 0.59 0.57 0.57 0.58 0.58 0.58 0.58 0.58 0.57
0.43 0.34 0.37 0.48 0.46 0.49 0.48 0.46 0.36 0.39 0.45 0.47 0.45 0.37 0.37 0.32 0.26 0.23 0.22 0.22 0.20 0.16 0.16 0.16 0.18 0.16 0.20 0.19 0.20 0.19 0.19 0.18 0.17 0.19 0.19 0.20 0.21 0.22 0.23 0.24 0.26 0.27 0.29 0.30 0.31 0.33 0.34 0.36 0.38 0.39 0.39 0.39 0.41 0.42 0.43 0.45 0.47 0.47 0.49 0.50 0.51 0.54 0.57 0.58 0.59 0.61 0.61 0.63 0.63 0.62 0.62 0.60 0.60 0.60 0.59 0.58 0.57 0.57 0.56 0.56 0.57 0.56 0.54 0.54 0.55 0.54
0.38 0.42 0.31 0.42 0.49 0.47 0.37 0.42 0.37 0.39 0.36 0.37 0.37 0.34 0.33 0.30 0.32 0.29 0.27 0.22 0.19 0.17 0.16 0.15 0.15 0.17 0.19 0.21 0.20 0.19 0.18 0.19 0.19 0.18 0.19 0.20 0.22 0.24 0.24 0.25 0.27 0.28 0.29 0.31 0.32 0.33 0.35 0.37 0.39 0.41 0.42 0.43 0.44 0.47 0.47 0.48 0.47 0.48 0.50 0.51 0.53 0.53 0.55 0.56 0.58 0.59 0.57 0.58 0.58 0.57 0.55 0.55 0.56 0.56 0.57 0.57 0.57 0.56 0.55 0.55 0.55 0.54 0.54 0.54 0.52 0.51
0.36 0.37 0.32 0.38 0.39 0.37 0.38 0.46 0.44 0.42 0.41 0.37 0.35 0.33 0.33 0.29 0.26 0.22 0.21 0.26 0.22 0.19 0.17 0.16 0.14 0.17 0.20 0.23 0.21 0.20 0.20 0.20 0.20 0.19 0.19 0.20 0.22 0.24 0.25 0.27 0.28 0.29 0.31 0.33 0.34 0.35 0.36 0.37 0.39 0.41 0.42 0.43 0.44 0.44 0.45 0.48 0.49 0.49 0.50 0.51 0.52 0.54 0.54 0.53 0.53 0.52 0.52 0.54 0.54 0.53 0.53 0.54 0.55 0.55 0.55 0.54 0.54 0.53 0.53 0.53 0.53 0.53 0.53 0.50 0.48 0.46
0.39 0.39 0.36 0.34 0.36 0.38 0.42 0.47 0.49 0.47 0.45 0.41 0.37 0.33 0.34 0.32 0.29 0.24 0.20 0.21 0.22 0.21 0.21 0.20 0.17 0.17 0.22 0.23 0.22 0.21 0.21 0.21 0.21 0.20 0.20 0.21 0.22 0.24 0.26 0.28 0.31 0.32 0.33 0.34 0.35 0.36 0.37 0.38 0.39 0.41 0.41 0.42 0.42 0.43 0.44 0.45 0.46 0.47 0.48 0.50 0.51 0.50 0.49 0.50 0.50 0.52 0.52 0.52 0.51 0.51 0.52 0.52 0.52 0.52 0.52 0.51 0.51 0.51 0.52 0.52 0.52 0.51 0.47 0.44 0.44 0.44
0.42 0.35 0.32 0.35 0.40 0.43 0.46 0.49 0.49 0.48 0.45 0.39 0.39 0.38 0.34 0.29 0.29 0.25 0.23 0.23 0.21 0.21 0.19 0.18 0.16 0.17 0.21 0.24 0.23 0.23 0.23 0.23 0.23 0.21 0.20 0.21 0.22 0.24 0.26 0.28 0.29 0.31 0.33 0.35 0.37 0.38 0.39 0.39 0.40 0.40 0.40 0.41 0.41 0.41 0.42 0.44 0.45 0.46 0.46 0.47 0.47 0.47 0.47 0.49 0.50 0.50 0.50 0.50 0.50 0.50 0.51 0.51 0.51 0.50 0.50 0.49 0.50 0.50 0.51 0.49 0.47 0.45 0.43 0.43 0.42 0.41
0.32 0.35 0.32 0.30 0.31 0.33 0.37 0.41 0.42 0.45 0.43 0.37 0.35 0.36 0.36 0.34 0.32 0.30 0.28 0.27 0.21 0.21 0.20 0.17 0.15 0.17 0.21 0.24 0.24 0.23 0.22 0.21 0.21 0.21 0.21 0.20 0.22 0.24 0.26 0.28 0.30 0.32 0.33 0.34 0.35 0.36 0.37 0.37 0.37 0.38 0.39 0.39 0.40 0.41 0.42 0.43 0.43 0.44 0.44 0.45 0.45 0.46 0.48 0.48 0.49 0.49 0.49 0.49 0.48 0.49 0.48 0.48 0.49 0.48 0.49 0.49 0.49 0.48 0.46 0.45 0.44 0.43 0.41 0.41 0.40 0.41
0.35 0.35 0.32 0.26 0.23 0.22 0.22 0.23 0.26 0.31 0.35 0.38 0.39 0.37 0.36 0.33 0.31 0.29 0.24 0.24 0.21 0.23 0.22 0.19 0.17 0.20 0.22 0.23 0.22 0.22 0.21 0.21 0.22 0.22 0.22 0.23 0.23 0.24 0.27 0.29 0.30 0.31 0.32 0.33 0.35 0.36 0.35 0.37 0.38 0.38 0.39 0.39 0.40 0.41 0.41 0.42 0.43 0.43 0.44 0.44 0.46 0.46 0.47 0.48 0.49 0.49 0.48 0.48 0.47 0.46 0.46 0.47 0.47 0.48 0.48 0.47 0.46 0.45 0.44 0.44 0.42 0.41 0.41 0.41 0.40 0.40
0.35 0.37 0.33 0.30 0.27 0.25 0.27 0.32 0.38 0.40 0.39 0.34 0.35 0.36 0.35 0.35 0.33 0.30 0.28 0.24 0.22 0.23 0.21 0.21 0.20 0.20 0.20 0.20 0.21 0.21 0.21 0.20 0.21 0.21 0.21 0.22 0.24 0.26 0.28 0.29 0.30 0.31 0.32 0.33 0.34 0.36 0.37 0.37 0.37 0.38 0.39 0.40 0.41 0.41 0.42 0.42 0.42 0.43 0.44 0.44 0.46 0.47 0.48 0.48 0.48 0.48 0.47 0.46 0.46 0.45 0.46 0.46 0.46 0.46 0.45 0.45 0.45 0.45 0.44 0.43 0.43 0.42 0.41 0.41 0.41 0.39
0.35 0.31 0.32 0.31 0.30 0.31 0.33 0.33 0.35 0.36 0.34 0.35 0.34 0.33 0.35 0.34 0.32 0.30 0.27 0.24 0.26 0.23 0.20 0.22 0.22 0.20 0.20 0.20 0.21 0.20 0.20 0.20 0.21 0.21 0.22 0.23 0.24 0.26 0.28 0.30 0.32 0.32 0.33 0.34 0.34 0.34 0.34 0.36 0.37 0.38 0.39 0.40 0.40 0.42 0.42 0.43 0.44 0.44 0.44 0.44 0.46 0.47 0.47 0.48 0.47 0.46 0.46 0.46 0.45 0.45 0.45 0.46 0.46 0.45 0.45 0.45 0.45 0.44 0.44 0.43 0.43 0.42 0.42 0.41 0.40 0.39
0.32 0.28 0.32 0.33 0.31 0.32 0.33 0.32 0.33 0.33 0.33 0.34 0.35 0.35 0.33 0.33 0.32 0.29 0.28 0.27 0.27 0.23 0.21 0.22 0.23 0.21 0.21 0.22 0.22 0.21 0.21 0.21 0.22 0.22 0.24 0.25 0.27 0.28 0.29 0.29 0.29 0.30 0.31 0.32 0.32 0.34 0.35 0.35 0.37 0.38 0.39 0.40 0.41 0.41 0.41 0.42 0.44 0.45 0.45 0.46 0.47 0.47 0.47 0.48 0.47 0.46 0.46 0.45 0.45 0.45 0.45 0.45 0.45 0.45 0.45 0.45 0.44 0.44 0.43 0.43 0.42 0.42 0.41 0.41 0.40 0.39
0.34 0.30 0.32 0.32 0.31 0.32 0.32 0.32 0.33 0.31 0.31 0.31 0.31 0.33 0.34 0.35 0.33 0.32 0.30 0.29 0.28 0.26 0.25 0.25 0.24 0.23 0.24 0.24 0.24 0.24 0.25 0.24 0.24 0.25 0.26 0.26 0.26 0.27 0.28 0.29 0.29 0.30 0.30 0.31 0.32 0.33 0.36 0.37 0.38 0.39 0.40 0.40 0.40 0.41 0.41 0.42 0.43 0.44 0.45 0.45 0.47 0.47 0.47 0.47 0.47 0.46 0.45 0.45 0.45 0.45 0.45 0.45 0.45 0.44 0.44 0.43 0.43 0.43 0.43 0.42 0.42 0.41 0.40 0.39 0.39 0.38
0.34 0.30 0.34 0.32 0.30 0.30 0.32 0.33 0.33 0.32 0.30 0.29 0.30 0.31 0.32 0.33 0.33 0.32 0.31 0.30 0.30 0.28 0.27 0.27 0.26 0.24 0.27 0.28 0.26 0.27 0.28 0.28 0.27 0.26 0.25 0.26 0.28 0.28 0.28 0.28 0.29 0.30 0.31 0.32 0.33 0.35 0.37 0.38 0.39 0.40 0.40 0.40 0.41 0.41 0.43 0.44 0.45 0.46 0.46 0.46 0.47 0.47 0.48 0.48 0.47 0.46 0.46 0.45 0.45 0.45 0.45 0.44 0.44 0.44 0.43 0.43 0.42 0.42 0.42 0.41 0.41 0.40 0.39 0.38 0.38 0.38
0.36 0.32 0.36 0.32 0.28 0.27 0.32 0.31 0.31 0.31 0.31 0.29 0.28 0.29 0.29 0.29 0.28 0.29 0.29 0.30 0.29 0.26 0.27 0.27 0.25 0.24 0.27 0.30 0.30 0.29 0.29 0.28 0.27 0.26 0.26 0.27 0.29 0.30 0.29 0.29 0.29 0.30 0.31 0.33 0.34 0.36 0.37 0.38 0.39 0.39 0.39 0.40 0.42 0.43 0.43 0.44 0.45 0.45 0.45 0.46 0.47 0.47 0.48 0.48 0.47 0.46 0.46 0.46 0.45 0.45 0.44 0.44 0.43 0.42 0.42 0.42 0.42 0.42 0.41 0.40 0.39 0.38 0.38 0.38 0.38 0.38
0.35 0.32 0.30 0.30 0.26 0.26 0.31 0.32 0.30 0.30 0.29 0.26 0.25 0.26 0.28 0.29 0.29 0.30 0.31 0.32 0.30 0.29 0.26 0.24 0.23 0.27 0.31 0.31 0.29 0.29 0.30 0.29 0.28 0.28 0.28 0.29 0.30 0.31 0.30 0.30 0.30 0.31 0.32 0.34 0.35 0.36 0.37 0.37 0.38 0.39 0.41 0.42 0.42 0.43 0.44 0.46 0.45 0.45 0.46 0.46 0.48 0.49 0.48 0.48 0.47 0.46 0.46 0.45 0.45 0.44 0.43 0.43 0.42 0.42 0.42 0.41 0.41 0.41 0.40 0.39 0.38 0.38 0.38 0.37 0.38 0.38
0.35 0.33 0.30 0.32 0.25 0.25 0.30 0.31 0.32 0.27 0.21 0.20 0.27 0.31 0.31 0.28 0.29 0.28 0.28 0.29 0.30 0.31 0.28 0.28 0.28 0.30 0.31 0.30 0.29 0.29 0.29 0.29 0.29 0.30 0.31 0.31 0.31 0.32 0.32 0.32 0.32 0.33 0.34 0.35 0.36 0.35 0.37 0.39 0.40 0.41 0.42 0.43 0.44 0.46 0.47 0.48 0.47 0.48 0.50 0.50 0.49 0.48 0.48 0.47 0.46 0.46 0.45 0.45 0.44 0.44 0.43 0.42 0.42 0.41 0.41 0.41 0.41 0.40 0.39 0.38 0.38 0.38 0.39 0.39 0.39 0.38
0.32 0.32 0.30 0.32 0.27 0.25 0.30 0.31 0.26 0.21 0.19 0.27 0.34 0.34 0.33 0.32 0.31 0.28 0.27 0.29 0.30 0.31 0.31 0.30 0.29 0.29 0.30 0.30 0.30 0.30 0.31 0.33 0.35 0.35 0.36 0.37 0.37 0.36 0.34 0.34 0.34 0.34 0.35 0.36 0.36 0.37 0.38 0.38 0.40 0.41 0.43 0.43 0.45 0.46 0.47 0.48 0.49 0.50 0.50 0.49 0.48 0.48 0.47 0.47 0.46 0.46 0.45 0.44 0.44 0.43 0.43 0.42 0.42 0.41 0.41 0.41 0.40 0.39 0.39 0.38 0.38 0.39 0.39 0.39 0.39 0.38
0.30 0.30 0.31 0.29 0.30 0.30 0.28 0.26 0.19 0.18 0.26 0.33 0.33 0.34 0.36 0.34 0.33 0.31 0.29 0.30 0.31 0.31 0.30 0.29 0.29 0.30 0.31 0.31 0.31 0.34 0.35 0.37 0.38 0.39 0.39 0.40 0.40 0.39 0.38 0.38 0.38 0.39 0.38 0.39 0.39 0.39 0.41 0.42 0.41 0.41 0.42 0.46 0.47 0.47 0.48 0.48 0.50 0.50 0.49 0.50 0.49 0.48 0.48 0.47 0.46 0.45 0.45 0.44 0.44 0.43 0.43 0.42 0.42 0.41 0.41 0.40 0.39 0.39 0.39 0.39 0.39 0.39 0.40 0.40 0.39 0.39
0.33 0.32 0.30 0.28 0.32 0.24 0.25 0.24 0.22 0.27 0.27 0.27 0.28 0.30 0.30 0.28 0.29 0.28 0.24 0.27 0.32 0.32 0.32 0.30 0.30 0.31 0.32 0.32 0.34 0.37 0.39 0.39 0.37 0.37 0.39 0.40 0.40 0.41 0.40 0.40 0.41 0.42 0.43 0.43 0.44 0.43 0.44 0.45 0.46 0.47 0.48 0.48 0.48 0.48 0.48 0.50 0.51 0.51 0.50 0.49 0.48 0.48 0.46 0.46 0.45 0.45 0.44 0.44 0.44 0.44 0.44 0.43 0.42 0.41 0.40 0.40 0.39 0.39 0.39 0.39 0.40 0.40 0.40 0.39 0.39 0.38
0.37 0.31 0.32 0.27 0.28 0.30 0.25 0.23 0.23 0.22 0.18 0.19 0.27 0.32 0.35 0.35 0.34 0.33 0.29 0.26 0.32 0.33 0.33 0.31 0.30 0.30 0.32 0.34 0.36 0.39 0.41 0.37 0.33 0.33 0.37 0.40 0.41 0.41 0.42 0.43 0.44 0.45 0.45 0.46 0.48 0.48 0.49 0.50 0.51 0.51 0.51 0.50 0.51 0.52 0.53 0.53 0.53 0.52 0.50 0.49 0.48 0.47 0.46 0.46 0.45 0.46 0.45 0.45 0.45 0.45 0.44 0.44 0.42 0.41 0.41 0.40 0.39 0.39 0.40 0.40 0.40 0.39 0.40 0.38 0.38 0.38
0.41 0.40 0.36 0.30 0.29 0.29 0.27 0.23 0.21 0.18 0.18 0.26 0.29 0.31 0.36 0.38 0.36 0.37 0.30 0.23 0.28 0.31 0.33 0.32 0.31 0.33 0.34 0.35 0.37 0.40 0.37 0.32 0.30 0.32 0.36 0.41 0.43 0.43 0.42 0.43 0.44 0.45 0.46 0.46 0.46 0.46 0.48 0.49 0.50 0.50 0.50 0.50 0.49 0.50 0.52 0.52 0.52 0.51 0.49 0.49 0.49 0.48 0.47 0.46 0.46 0.46 0.46 0.46 0.46 0.46 0.45 0.44 0.43 0.42 0.41 0.40 0.40 0.39 0.39 0.39 0.38 0.39 0.39 0.39 0.39 0.40
0.37 0.37 0.37 0.33 0.31 0.31 0.29 0.26 0.23 0.25 0.22 0.30 0.34 0.37 0.39 0.39 0.40 0.34 0.23 0.19 0.28 0.32 0.32 0.34 0.34 0.35 0.36 0.36 0.37 0.36 0.33 0.29 0.29 0.32 0.39 0.41 0.42 0.43 0.43 0.42 0.43 0.44 0.45 0.47 0.48 0.49 0.50 0.51 0.51 0.50 0.49 0.49 0.50 0.52 0.53 0.53 0.52 0.51 0.50 0.50 0.49 0.48 0.47 0.47 0.47 0.48 0.47 0.47 0.47 0.46 0.46 0.44 0.43 0.41 0.40 0.39 0.39 0.39 0.38 0.39 0.39 0.39 0.39 0.41 0.42 0.42
0.32 0.33 0.34 0.29 0.30 0.31 0.31 0.29 0.30 0.28 0.33 0.37 0.38 0.41 0.44 0.45 0.40 0.28 0.20 0.21 0.33 0.31 0.33 0.34 0.34 0.34 0.34 0.34 0.35 0.31 0.33 0.34 0.36 0.39 0.41 0.42 0.41 0.41 0.43 0.44 0.44 0.45 0.45 0.46 0.46 0.49 0.49 0.50 0.50 0.48 0.48 0.49 0.51 0.52 0.53 0.52 0.51 0.50 0.50 0.50 0.49 0.48 0.48 0.49 0.49 0.49 0.48 0.48 0.47 0.46 0.44 0.43 0.41 0.40 0.39 0.39 0.38 0.39 0.39 0.40 0.40 0.41 0.42 0.43 0.43 0.43
0.29 0.30 0.30 0.31 0.28 0.27 0.28 0.26 0.24 0.26 0.31 0.37 0.40 0.41 0.44 0.37 0.28 0.24 0.30 0.38 0.37 0.35 0.38 0.39 0.37 0.37 0.37 0.36 0.36 0.34 0.35 0.38 0.39 0.41 0.41 0.41 0.41 0.42 0.44 0.44 0.45 0.45 0.47 0.48 0.49 0.49 0.48 0.49 0.49 0.50 0.50 0.51 0.52 0.52 0.52 0.51 0.50 0.49 0.49 0.49 0.48 0.49 0.50 0.50 0.49 0.48 0.47 0.46 0.44 0.43 0.42 0.41 0.40 0.39 0.39 0.39 0.39 0.39 0.41 0.42 0.43 0.44 0.44 0.44 0.43 0.41
0.24 0.24 0.23 0.24 0.27 0.29 0.29 0.25 0.23 0.17 0.23 0.36 0.38 0.39 0.41 0.28 0.27 0.33 0.36 0.37 0.38 0.36 0.36 0.36 0.36 0.36 0.36 0.35 0.37 0.37 0.37 0.38 0.39 0.39 0.41 0.42 0.41 0.41 0.42 0.42 0.42 0.42 0.42 0.43 0.44 0.46 0.46 0.45 0.46 0.46 0.47 0.49 0.50 0.51 0.51 0.50 0.48 0.47 0.47 0.46 0.47 0.48 0.48 0.48 0.47 0.45 0.44 0.43 0.42 0.42 0.41 0.40 0.40 0.40 0.40 0.41 0.42 0.42 0.43 0.44 0.45 0.45 0.45 0.43 0.41 0.39
0.29 0.23 0.23 0.25 0.27 0.21 0.22 0.20 0.18 0.20 0.30 0.35 0.32 0.26 0.32 0.31 0.34 0.35 0.33 0.31 0.34 0.34 0.34 0.34 0.34 0.35 0.35 0.34 0.35 0.36 0.37 0.37 0.38 0.40 0.40 0.41 0.42 0.42 0.43 0.44 0.44 0.44 0.45 0.46 0.46 0.46 0.46 0.45 0.45 0.45 0.47 0.48 0.49 0.49 0.49 0.48 0.46 0.45 0.45 0.45 0.47 0.47 0.46 0.46 0.45 0.44 0.43 0.43 0.42 0.42 0.41 0.41 0.41 0.42 0.43 0.43 0.44 0.44 0.44 0.45 0.46 0.45 0.43 0.41 0.39 0.38
0.30 0.24 0.24 0.21 0.30 0.26 0.22 0.23 0.26 0.32 0.32 0.34 0.35 0.35 0.35 0.36 0.36 0.35 0.34 0.32 0.31 0.32 0.36 0.34 0.34 0.36 0.35 0.35 0.35 0.36 0.36 0.37 0.38 0.40 0.39 0.41 0.42 0.43 0.44 0.45 0.46 0.46 0.46 0.46 0.47 0.49 0.49 0.48 0.48 0.48 0.49 0.50 0.50 0.50 0.50 0.49 0.47 0.46 0.45 0.47 0.48 0.47 0.47 0.46 0.45 0.45 0.44 0.43 0.43 0.43 0.43 0.43 0.43 0.44 0.44 0.45 0.45 0.44 0.45 0.45 0.44 0.41 0.40 0.40 0.38 0.37
0.33 0.33 0.35 0.30 0.28 0.31 0.32 0.31 0.33 0.34 0.35 0.36 0.40 0.40 0.39 0.39 0.39 0.37 0.35 0.32 0.33 0.34 0.36 0.35 0.36 0.37 0.37 0.37 0.35 0.36 0.37 0.39 0.40 0.41 0.42 0.43 0.44 0.45 0.46 0.46 0.47 0.48 0.48 0.49 0.49 0.49 0.50 0.50 0.50 0.50 0.49 0.50 0.52 0.52 0.52 0.51 0.50 0.48 0.49 0.50 0.50 0.49 0.48 0.47 0.46 0.46 0.45 0.45 0.44 0.44 0.44 0.44 0.44 0.45 0.45 0.45 0.45 0.45 0.45 0.43 0.42 0.40 0.39 0.38 0.37 0.35
0.34 0.35 0.32 0.28 0.31 0.28 0.23 0.29 0.31 0.32 0.36 0.37 0.38 0.42 0.42 0.42 0.41 0.41 0.38 0.37 0.37 0.38 0.38 0.39 0.40 0.40 0.40 0.40 0.38 0.37 0.38 0.40 0.41 0.43 0.44 0.45 0.45 0.46 0.46 0.46 0.47 0.48 0.48 0.48 0.50 0.51 0.51 0.51 0.51 0.51 0.52 0.52 0.53 0.54 0.54 0.53 0.52 0.51 0.52 0.51 0.51 0.50 0.50 0.48 0.47 0.47 0.46 0.46 0.45 0.45 0.44 0.44 0.44 0.44 0.44 0.44 0.45 0.45 0.43 0.42 0.40 0.39 0.37 0.35 0.33 0.30
0.28 0.38 0.32 0.31 0.30 0.26 0.23 0.29 0.33 0.36 0.37 0.40 0.40 0.39 0.40 0.42 0.43 0.44 0.43 0.43 0.42 0.42 0.42 0.42 0.43 0.42 0.44 0.42 0.43 0.41 0.41 0.42 0.42 0.43 0.44 0.45 0.46 0.46 0.48 0.49 0.50 0.50 0.52 0.53 0.53 0.53 0.53 0.53 0.53 0.53 0.53 0.53 0.54 0.55 0.55 0.55 0.54 0.54 0.53 0.52 0.52 0.51 0.50 0.49 0.48 0.47 0.47 0.46 0.46 0.45 0.44 0.43 0.43 0.42 0.43 0.44 0.44 0.42 0.40 0.39 0.37 0.35 0.33 0.31 0.28 0.24
0.32 0.36 0.28 0.31 0.28 0.30 0.33 0.34 0.35 0.36 0.38 0.39 0.41 0.43 0.44 0.45 0.45 0.45 0.45 0.45 0.45 0.44 0.44 0.45 0.46 0.45 0.46 0.45 0.47 0.46 0.44 0.44 0.45 0.45 0.45 0.46 0.47 0.48 0.49 0.50 0.51 0.52 0.53 0.53 0.54 0.55 0.54 0.54 0.54 0.54 0.54 0.55 0.56 0.56 0.55 0.55 0.54 0.54 0.53 0.52 0.51 0.50 0.49 0.48 0.47 0.47 0.45 0.45 0.44 0.43 0.43 0.42 0.42 0.43 0.43 0.42 0.40 0.38 0.37 0.35 0.34 0.32 0.31 0.29 0.25 0.22
0.34 0.29 0.33 0.31 0.28 0.27 0.26 0.29 0.34 0.28 0.28 0.34 0.38 0.41 0.44 0.46 0.47 0.46 0.47 0.46 0.47 0.46 0.46 0.45 0.46 0.48 0.49 0.49 0.48 0.48 0.46 0.47 0.48 0.48 0.47 0.47 0.48 0.49 0.50 0.51 0.52 0.52 0.53 0.54 0.55 0.55 0.55 0.54 0.53 0.52 0.53 0.54 0.55 0.55 0.55 0.54 0.54 0.53 0.52 0.51 0.50 0.49 0.47 0.46 0.46 0.45 0.44 0.43 0.42 0.41 0.41 0.41 0.41 0.41 0.39 0.38 0.36 0.35 0.34 0.34 0.33 0.30 0.26 0.23 0.23 0.22
0.30 0.31 0.32 0.28 0.27 0.25 0.31 0.36 0.37 0.35 0.34 0.37 0.40 0.44 0.47 0.48 0.48 0.46 0.46 0.47 0.48 0.49 0.49 0.49 0.48 0.49 0.49 0.51 0.52 0.50 0.49 0.49 0.49 0.50 0.49 0.50 0.50 0.51 0.52 0.52 0.52 0.52 0.53 0.54 0.54 0.53 0.53 0.52 0.52 0.52 0.52 0.52 0.53 0.53 0.52 0.51 0.51 0.50 0.49 0.48 0.48 0.47 0.45 0.44 0.43 0.42 0.41 0.40 0.39 0.39 0.39 0.38 0.38 0.37 0.36 0.34 0.33 0.31 0.30 0.29 0.29 0.27 0.24 0.22 0.21 0.21
Wind_Speed
31 31 33 34 33 34 36 36 34 33 31 29 29 30 30 28 29 30 28 27 26 27 27 27 26 25 24 22 22 22 22 22 23 22 22 22 22 23 23 22 22 22 22 21 21 22 22 22 21 21 21 21 21 21 20 20 20 20 19 19 18 17 17 17 16 16 15 15 15 14 14 14 14 14 14 14 14 15 15 15 16 16 16 17 17 18
31 34 36 35 32 32 35 34 33 35 34 30 29 30 31 30 28 29 29 27 26 27 27 27 26 26 25 24 22 22 22 23 24 23 23 23 23 23 23 23 23 22 21 21 21 22 22 22 22 21 21 21 21 21 21 21 20 20 20 20 19 18 18 18 17 17 16 16 16 15 15 15 15 15 15 15 15 15 16 16 17 17 17 18 18 19
33 35 34 32 31 31 33 34 34 35 35 32 30 30 31 31 28 27 28 27 26 27 27 26 27 27 25 24 23 24 24 24 25 25 25 25 25 24 24 24 24 23 22 21 21 22 22 22 22 22 22 22 22 22 21 21 21 21 20 20 20 19 19 19 18 18 18 17 17 17 16 16 15 16 16 16 16 16 17 17 18 18 18 18 19 19
34 33 31 29 30 32 34 35 34 35 35 33 32 31 31 31 29 28 29 28 26 27 26 26 27 26 25 25 25 26 26 25 26 26 26 26 26 26 26 25 25 24 23 22 22 22 22 23 23 23 22 22 22 22 22 22 21 21 21 21 20 20 20 19 19 19 19 18 18 18 17 17 17 16 17 17 17 18 18 18 18 19 19 19 19 20
32 29 29 30 31 33 34 35 35 34 34 34 33 32 31 31 31 29 27 27 27 27 26 25 25 27 27 26 27 26 26 26 26 26 26 26 26 26 26 25 25 25 24 23 22 22 22 23 23 23 23 23 23 23 22 22 22 21 21 21 21 21 21 20 20 20 20 19 19 19 18 18 18 18 18 18 19 19 19 19 19 19 19 20 20 21
32 28 29 31 32 34 35 35 36 34 33 34 34 34 32 31 31 29 27 26 27 29 28 27 26 27 27 27 28 26 25 26 26 26 27 27 27 27 26 26 25 25 24 24 23 22 22 23 23 23 23 23 23 23 23 23 22 22 22 22 22 22 21 21 21 21 20 20 20 20 20 19 19 20 20 20 19 19 19 19 19 20 20 20 21 21
32 30 29 31 32 34 35 36 36 33 32 33 34 34 32 31 31 31 30 28 28 29 28 27 27 26 26 27 28 26 26 27 26 26 28 28 28 28 28 27 26 25 25 24 24 23 23 23 23 23 23 24 24 24 23 23 23 23 23 23 23 22 22 22 22 22 21 21 21 21 21 21 21 21 21 20 20 20 20 20 20 20 21 21 22 22
32 31 29 30 32 33 35 37 36 33 32 33 32 32 32 31 31 31 32 30 29 28 26 27 28 27 27 28 27 25 26 28 27 27 27 28 29 29 29 28 27 26 26 25 25 24 24 24 24 24 24 24 24 24 23 23 23 24 23 23 23 23 23 23 23 23 23 22 22 22 22 22 22 22 21 21 21 20 20 20 20 21 21 22 22 22
30 32 30 31 32 33 35 36 34 32 32 33 31 30 30 31 31 31 32 30 28 27 28 28 28 27 28 29 26 24 26 27 27 28 28 29 30 29 29 29 28 27 26 26 25 25 25 25 25 25 24 24 24 24 24 24 24 24 24 24 24 24 24 24 24 24 24 23 23 23 23 23 23 22 22 21 21 21 20 21 21 22 22 22 21 21
27 30 29 31 32 32 35 36 34 32 32 32 30 28 26 26 27 28 30 30 28 29 31 31 30 27 27 28 27 25 26 27 26 26 27 28 29 29 29 29 28 28 27 26 26 26 26 26 25 25 25 25 25 24 24 24 24 24 24 24 25 25 25 25 24 24 24 24 24 23 23 23 23 22 22 21 21 21 21 22 22 22 22 21 21 21
24 26 27 29 30 30 33 35 33 32 33 31 29 28 25 25 26 27 28 29 28 29 32 32 31 29 27 28 29 28 27 27 26 25 25 26 28 29 29 29 28 28 27 27 26 26 26 25 25 25 25 25 25 25 25 25 25 25 25 25 25 25 25 25 25 25 24 24 24 24 24 23 23 23 22 22 22 22 22 22 22 22 22 22 22 21
23 25 26 27 27 27 29 32 32 31 33 32 30 30 27 25 25 26 26 28 28 29 31 31 30 29 29 28 28 28 27 26 26 26 25 25 27 28 28 28 28 27 27 26 26 25 25 25 25 25 25 25 25 25 26 26 26 26 26 26 26 25 25 25 25 25 25 24 24 24 24 24 23 23 23 23 23 23 23 22 22 22 22 22 22 22
24 25 26 25 26 27 28 30 30 31 33 33 33 32 29 25 25 26 26 27 29 28 28 29 29 29 31 30 29 28 27 26 27 27 26 26 27 27 27 27 27 27 26 26 26 26 26 25 26 26 26 26 26 26 27 26 26 26 26 26 26 26 26 25 25 25 25 25 24 24 24 24 23 23 24 24 24 23 23 22 22 22 22 22 22 22
24 25 26 26 26 27 28 29 31 32 34 35 36 36 32 28 27 28 28 26 27 27 27 28 27 28 29 30 30 30 28 26 26 27 26 26 27 28 27 27 27 27 26 26 26 26 26 27 27 27 27 27 27 27 27 27 27 27 27 27 27 26 26 25 25 25 25 24 24 24 24 24 24 24 24 24 23 23 22 22 21 21 21 21 21 22
25 24 28 29 27 27 28 28 30 32 33 34 35 35 34 31 29 28 28 27 27 26 26 27 26 27 27 27 28 29 28 26 26 26 26 25 25 26 26 26 26 26 26 26 26 27 27 27 27 27 27 27 28 28 28 28 27 27 27 27 27 26 26 25 25 25 24 24 24 24 24 24 24 24 24 23 23 22 22 21 21 21 21 21 21 22
25 23 25 27 26 26 27 27 28 30 32 33 33 34 35 34 30 27 26 28 27 25 26 28 28 27 26 26 26 26 25 26 25 25 25 24 24 25 25 25 26 26 27 27 27 27 27 27 27 27 27 27 27 27 27 28 27 27 27 27 26 26 25 25 25 25 25 24 24 24 24 24 24 23 23 22 22 21 21 21 21 21 21 22 22 22
24 21 22 25 25 26 26 26 27 29 32 32 33 35 36 33 30 27 26 26 25 25 27 28 29 28 26 26 25 24 24 25 24 24 25 25 25 25 26 26 26 26 27 27 27 27 26 26 26 26 26 26 26 26 26 26 27 27 27 26 26 25 25 25 25 25 24 24 23 23 23 23 22 22 22 21 21 20 20 20 21 21 22 22 23 23
22 20 21 25 26 26 25 24 27 29 30 31 33 35 33 30 29 28 26 24 24 26 27 27 29 29 27 26 25 24 25 26 25 24 24 25 25 26 26 27 27 27 27 27 26 26 26 26 26 26 26 26 26 26 26 25 25 25 25 25 25 25 24 24 24 24 24 23 23 22 22 21 21 21 20 20 20 20 20 21 21 22 22 23 23 23
22 20 20 24 26 25 23 23 26 29 30 31 32 33 31 29 30 29 27 26 26 27 27 27 28 29 29 28 26 26 28 27 26 25 25 25 25 26 27 27 27 27 27 27 27 26 26 26 26 25 26 26 26 26 25 25 25 24 24 24 24 23 23 23 23 23 23 22 22 21 21 20 20 20 20 20 20 20 21 21 22 22 23 23 23 23
23 21 21 23 25 24 24 24 27 29 30 30 29 31 31 30 30 30 29 28 27 27 27 26 26 28 30 29 27 27 28 26 25 25 26 26 27 27 28 28 28 28 27 27 27 27 26 26 26 25 25 25 25 25 25 25 24 24 24 23 23 23 23 23 23 22 22 21 21 20 20 20 20 20 20 20 21 21 21 22 22 23 23 23 23 24
23 22 22 23 24 25 26 27 28 28 30 30 30 31 32 31 30 29 29 29 27 27 27 26 26 28 29 28 27 28 26 25 26 26 26 27 28 28 28 28 28 28 28 27 27 26 26 26 26 25 25 25 25 24 24 24 24 23 23 23 23 23 23 22 22 21 21 20 20 20 20 20 20 20 21 21 21 22 22 22 23 23 23 24 24 24
23 22 22 23 25 27 27 27 27 27 29 30 31 32 32 31 30 28 29 30 29 27 27 26 26 28 28 26 26 26 25 25 26 27 27 27 28 28 28 28 28 28 28 27 27 27 27 27 26 26 25 25 24 24 23 23 23 23 22 22 22 22 22 22 21 21 21 21 20 20 20 20 21 21 21 22 22 22 22 23 23 23 24 24 24 24
22 21 21 22 24 26 27 26 26 27 28 30 32 32 32 31 31 30 30 30 29 28 27 26 26 27 27 25 25 25 24 25 26 27 27 28 28 29 28 28 27 27 27 27 27 27 27 27 26 26 25 25 24 24 23 23 22 22 22 22 22 22 22 22 22 21 21 21 21 21 21 21 22 22 22 22 22 22 23 23 23 24 24 24 25 25
22 21 20 20 21 23 24 25 26 26 28 30 32 33 32 32 32 31 30 29 29 30 28 26 27 28 27 25 25 25 25 25 25 26 27 26 26 27 28 27 27 26 26 26 27 27 26 26 26 25 25 24 24 23 23 23 22 22 22 22 22 22 22 22 22 22 22 22 22 22 22 22 22 22 22 22 23 23 23 24 24 24 24 25 25 26
23 22 21 19 18 20 22 24 27 29 30 31 32 33 33 32 30 30 29 27 28 30 29 28 28 29 27 24 24 24 23 23 24 24 25 25 25 26 26 27 27 27 27 27 27 26 26 26 26 25 25 24 24 24 23 23 23 23 23 23 23 23 23 23 23 23 23 23 23 23 23 23 23 23 23 23 24 24 24 25 25 25 25 26 27 27
23 23 24 22 21 22 23 23 26 28 29 29 30 32 33 32 32 31 29 28 29 30 29 29 30 29 27 25 24 23 23 23 23 23 25 25 25 26 26 27 27 27 27 27 27 27 27 27 26 26 25 25 24 24 24 24 23 23 23 23 23 23 24 24 24 24 24 24 24 23 23 23 23 24 24 24 25 25 25 26 26 26 27 27 27 28
23 23 26 26 26 25 23 22 22 24 27 30 31 31 33 34 33 31 29 30 31 29 30 32 31 30 29 28 26 26 26 26 25 25 26 26 26 26 27 27 27 27 27 27 27 27 27 27 27 27 26 26 26 25 25 25 24 24 24 24 24 24 24 25 25 25 25 24 24 24 24 24 24 25 25 26 26 26 27 27 27 27 28 28 28 29
24 25 26 27 27 26 24 23 23 23 27 31 32 32 33 33 32 31 32 33 31 29 32 34 32 31 32 30 29 28 27 27 27 27 27 27 27 27 27 27 27 27 27 27 27 28 28 27 27 27 27 27 27 27 26 26 26 25 25 25 25 25 26 26 26 25 25 25 24 25 25 25 26 26 27 27 28 28 28 28 28 29 29 29 29 30
25 26 26 25 25 24 24 25 24 24 26 28 31 33 33 33 33 34 35 35 33 32 35 35 34 35 34 31 30 30 29 29 29 29 28 27 27 27 27 27 28 28 28 28 28 28 28 28 28 28 28 28 28 28 28 27 27 27 27 27 27 27 27 27 26 26 26 25 26 26 26 27 27 28 28 29 29 29 29 29 29 29 30 30 31 31
26 26 25 24 24 24 23 24 25 25 25 26 29 31 32 33 34 35 36 35 34 36 37 35 35 36 34 32 31 30 29 30 29 29 29 28 28 28 28 28 29 30 30 30 30 29 29 29 29 29 29 29 29 29 29 29 28 28 28 28 28 28 28 28 27 27 27 27 27 28 28 28 29 29 30 30 30 30 30 30 30 30 31 31 32 32
27 25 24 23 24 24 23 23 24 25 26 26 27 29 30 32 34 36 37 36 35 37 37 34 35 37 34 32 32 31 29 30 30 30 31 30 29 29 29 30 31 31 31 31 30 30 29 29 29 30 30 30 31 30 30 30 30 30 30 30 30 29 29 29 29 28 29 29 29 29 29 30 30 30 30 31 31 31 31 31 31 32 32 32 32 33
27 26 23 23 24 25 24 23 24 24 24 26 29 29 30 32 33 34 35 34 34 36 35 35 37 37 33 31 32 32 31 31 32 32 32 31 30 30 31 31 32 32 32 32 31 31 30 30 31 31 31 32 32 32 32 31 31 31 31 31 31 30 30 30 30 30 30 30 30 30 30 31 31 31 31 31 31 31 32 32 32 32 33 33 33 34
27 26 24 24 25 25 24 24 24 22 22 27 30 30 30 31 31 31 31 32 33 33 34 36 36 33 30 30 31 32 32 33 34 33 32 31 31 32 32 32 32 33 32 32 32 32 32 32 32 32 32 32 33 33 33 33 32 32 32 32 32 32 32 32 31 31 31 31 31 31 31 31 31 31 31 32 32 32 33 33 33 33 33 34 34 35
26 26 25 24 24 24 24 23 22 22 24 27 27 26 29 30 29 30 31 31 31 31 32 32 31 28 28 30 31 31 32 33 34 34 33 32 32 32 33 33 33 33 32 32 32 33 33 33 32 32 33 33 33 33 33 33 33 33 33 33 33 33 33 33 32 32 32 32 32 32 32 32 32 32 32 32 33 33 33 33 34 34 34 35 35 36
26 26 25 23 23 23 23 22 22 25 27 25 23 24 27 29 29 30 31 31 30 31 31 31 30 29 29 30 31 31 33 34 34 34 34 33 33 33 33 34 34 33 33 32 32 33 33 33 33 34 34 34 34 34 34 34 34 34 34 34 34 34 34 33 33 33 32 32 32 33 33 33 32 32 33 33 33 33 34 34 34 35 35 35 36 36
26 26 25 23 22 22 22 23 25 25 25 24 24 24 25 25 26 28 30 30 29 29 30 31 32 30 29 31 31 30 31 32 33 34 34 34 34 34 34 34 34 34 33 33 33 33 33 34 35 35 36 35 35 34 35 35 34 34 34 35 35 35 34 34 34 34 33 33 33 34 34 34 33 33 33 34 34 34 34 34 35 35 36 36 36 36
25 26 25 24 23 22 22 25 25 23 23 25 26 24 24 24 25 26 29 30 29 29 29 30 31 30 30 32 31 29 28 30 32 34 35 34 34 34 35 35 34 34 34 34 34 34 34 35 35 35 36 36 36 36 35 35 35 35 35 35 35 35 35 35 35 35 35 34 34 34 34 34 34 34 34 34 34 34 35 35 35 35 36 36 36 36
26 26 26 25 24 22 22 22 23 23 25 26 26 24 23 24 24 24 27 29 29 30 31 30 31 31 30 31 31 29 28 30 32 34 35 34 33 34 35 35 35 35 35 35 35 35 35 35 35 35 36 36 37 37 36 36 36 36 36 36 36 36 36 36 36 36 35 35 35 35 35 35 35 35 35 35 35 35 35 35 35 35 36 36 36 37
25 26 26 26 25 24 24 24 24 26 26 25 24 24 23 23 22 20 24 29 29 29 31 31 30 30 30 31 30 27 28 31 33 34 33 32 33 34 35 35 35 35 35 35 35 35 35 35 35 36 36 37 37 38 38 37 37 37 36 36 37 37 37 37 37 36 36 36 36 36 36 36 35 35 35 35 35 35 35 35 35 36 36 36 36 37
25 25 27 28 28 27 27 26 26 28 27 25 25 25 24 24 21 19 23 28 27 27 30 31 31 31 32 32 30 28 30 33 33 32 31 30 31 33 34 35 35 35 35 35 35 35 35 35 36 36 37 38 38 38 38 38 38 38 37 37 37 37 37 37 37 37 37 37 36 36 36 36 36 35 35 35 35 35 35 35 35 36 36 36 37 37
25 26 27 28 28 27 27 27 27 27 28 26 26 25 23 22 22 24 27 27 24 24 26 28 30 33 32 30 29 30 32 33 31 30 30 29 30 30 32 33 34 34 34 35 35 35 35 35 36 36 37 37 38 38 38 38 38 37 37 37 37 37 37 37 37 37 37 37 36 36 36 36 35 35 35 35 35 35 35 36 36 36 36 37 37 37
26 25 26 27 27 26 26 26 26 27 27 25 24 24 23 22 24 27 26 24 23 24 24 25 28 29 29 29 30 31 31 30 30 29 28 28 29 30 30 31 31 32 33 33 34 34 34 34 35 35 36 36 37 38 38 38 38 37 37 37 36 36 36 36 36 36 36 36 36 36 35 35 35 35 35 35 35 35 35 35 36 36 36 37 37 37
27 26 26 27 27 25 24 25 25 26 25 23 21 23 25 24 24 24 22 22 23 24 24 25 26 26 27 28 29 30 29 28 28 28 27 28 28 28 29 29 29 30 30 31 32 33 33 33 34 34 35 35 36 37 37 37 37 37 36 36 36 35 35 35 35 35 35 35 35 35 35 35 35 35 35 35 35 35 35 35 36 36 36 37 37 38
28 28 28 28 27 26 26 27 27 26 25 23 22 25 27 26 23 22 23 23 24 24 25 26 26 26 26 27 27 27 27 27 27 27 27 28 28 28 28 28 28 29 29 30 30 31 31 32 32 33 33 34 35 36 36 37 36 36 36 36 35 35 35 35 35 35 35 35 35 35 35 35 35 35 35 35 35 35 35 35 36 36 37 37 38 39
30 29 28 28 28 27 28 29 27 26 26 26 25 26 27 26 23 23 24 24 24 25 25 25 26 26 25 25 25 25 26 26 27 27 27 28 28 28 28 28 28 28 29 29 29 30 31 31 31 32 32 33 34 35 35 36 36 36 36 36 35 35 35 35 35 35 35 35 35 35 35 35 35 35 35 35 35 35 35 36 36 36 37 38 39 40
28 27 26 26 28 28 29 28 26 25 28 29 27 27 28 28 26 26 25 26 26 26 26 26 26 26 25 25 25 25 26 26 26 27 27 27 28 28 28 28 28 29 29 29 30 30 31 31 32 32 33 33 34 35 35 36 36 36 36 36 36 36 35 35 35 35 35 35 35 35 35 34 34 34 34 34 35 35 36 36 37 37 38 39 40 40
28 27 27 27 28 29 29 28 27 27 29 29 28 28 28 29 28 28 27 27 27 27 26 26 26 26 26 26 26 26 27 27 27 27 28 28 28 29 29 29 30 30 30 31 31 31 31 31 32 33 33 34 35 35 35 36 36 36 36 36 36 36 36 35 35 35 35 35 34 34 34 34 34 34 34 35 35 36 36 37 37 38 39 39 40 41
28 28 28 29 29 30 30 29 28 27 29 29 29 29 28 28 28 28 28 28 27 27 27 27 27 27 28 28 28 27 27 28 28 29 29 29 30 30 30 31 31 30 31 31 31 32 32 32 33 33 33 34 34 35 35 35 35 35 35 35 35 35 35 35 34 34 34 34 34 34 34 34 34 34 35 35 36 36 37 38 38 39 39 40 41 42
28 29 30 29 29 30 30 29 28 27 28 30 31 31 30 29 28 28 27 27 26 26 27 27 27 28 28 29 29 28 28 29 30 29 30 30 31 31 31 31 30 31 31 31 32 32 32 32 33 33 33 33 33 33 34 34 34 34 34 34 34 34 34 34 33 33 33 33 34 34 34 35 35 35 36 36 36 37 38 38 39 40 40 41 42 42
30 31 31 29 30 31 31 30 29 28 29 31 32 32 31 31 30 29 28 27 27 27 27 28 28 28 29 30 30 30 30 30 30 30 31 31 31 31 31 30 30 31 31 31 32 32 32 32 32 31 31 32 32 32 33 33 33 34 33 33 33 33 33 33 33 33 33 34 34 35 35 35 36 36 36 37 37 38 38 39 39 40 41 41 42 43
33 33 32 31 32 32 31 31 31 29 29 31 32 32 31 31 30 30 30 29 29 29 28 28 28 28 29 30 30 30 30 31 31 31 31 31 31 31 31 30 30 31 31 31 31 31 31 31 31 31 32 32 32 33 33 33 34 34 33 33 33 33 34 34 34 34 34 35 35 35 36 36 36 37 37 38 38 38 39 39 40 41 41 42 42 43
Wind_Direction
212 212 214 214 214 212 210 211 212 212 214 216 215 214 213 213 217 216 217 218 212 212 217 216 217 220 220 220 217 215 214 216 218 219 219 217 216 216 216 216 216 217 220 219 218 219 219 218 219 219 220 220 221 222 223 224 226 228 229 230 232 233 235 235 235 237 238 239 241 243 247 250 253 256 259 262 264 265 268 269 271 273 275 276 278 281
213 214 216 216 214 211 211 213 212 212 216 217 216 216 215 214 217 217 216 219 215 214 218 217 219 222 221 221 220 216 216 219 219 218 219 219 219 219 218 218 218 220 221 220 220 221 221 221 221 221 222 221 222 222 224 225 226 228 230 231 232 234 235 235 236 238 240 241 243 246 249 253 255 257 260 263 266 267 268 270 271 273 275 277 279 281
214 217 217 215 213 212 213 215 214 213 215 216 215 215 215 215 216 218 218 219 217 216 219 218 219 223 223 223 222 218 218 221 220 219 220 220 220 221 220 220 220 222 223 222 222 223 222 222 222 222 223 223 224 225 225 226 227 228 230 232 233 234 235 236 238 239 241 244 246 248 251 254 257 259 261 263 266 266 268 270 271 273 275 278 280 282
215 219 217 213 214 214 215 216 215 214 215 215 214 213 215 214 214 217 217 218 216 217 218 217 220 225 224 224 226 223 222 223 224 223 224 223 222 222 222 222 221 222 223 223 224 224 223 223 223 223 224 225 226 227 227 228 228 230 232 233 234 235 236 237 238 240 243 245 247 250 253 256 258 261 262 263 265 267 269 272 273 275 277 279 281 282
218 220 214 212 217 216 215 216 215 214 214 216 214 213 214 213 215 217 215 215 217 219 218 216 223 228 224 223 226 225 223 224 226 226 228 227 225 225 225 224 223 223 224 224 224 224 223 223 223 224 225 226 227 228 229 230 231 233 234 235 236 237 238 239 240 242 244 247 249 251 254 256 258 260 262 263 266 268 271 274 275 277 278 279 281 282
221 220 211 211 216 215 214 215 214 212 214 217 215 213 213 213 215 216 213 212 215 220 220 217 222 229 226 224 225 224 223 224 225 225 227 228 226 226 226 226 226 226 227 226 226 226 225 224 225 225 226 227 229 230 231 233 234 235 236 237 237 239 240 241 243 244 246 248 250 251 252 254 257 259 262 264 267 270 272 274 276 277 278 279 281 282
221 219 213 211 213 212 213 215 213 209 213 217 215 212 212 213 213 213 212 213 215 219 221 218 220 227 228 227 226 225 224 226 227 226 228 228 227 226 226 226 227 227 228 228 228 228 228 227 227 227 228 229 230 232 234 235 236 237 238 239 239 241 242 243 245 246 247 249 250 252 253 255 257 260 264 267 269 271 273 275 276 278 278 279 281 283
218 216 213 211 209 211 213 214 211 207 211 217 213 209 211 212 212 213 213 216 219 220 222 221 220 226 229 227 226 224 224 228 230 230 229 229 228 227 226 227 227 228 228 228 229 229 230 230 229 230 231 231 233 234 236 237 238 239 239 240 241 242 244 245 246 247 248 250 251 253 254 257 259 261 264 268 270 272 274 275 277 278 280 281 282 283
216 214 214 211 210 213 212 212 211 207 212 216 211 208 212 213 213 215 215 218 221 220 222 223 220 225 229 229 228 224 224 229 230 230 230 229 229 228 228 227 228 229 230 230 230 230 231 232 232 232 233 235 236 237 238 239 240 241 241 242 243 244 245 247 248 248 250 251 252 254 256 258 260 262 265 267 269 272 273 275 277 279 281 282 282 284
216 214 213 212 214 214 212 213 210 208 213 214 209 208 211 214 216 216 216 217 219 221 223 222 220 225 230 230 228 227 226 229 229 229 230 230 229 229 229 229 229 230 231 231 232 232 232 233 234 235 236 237 239 240 240 241 242 242 243 243 244 245 246 247 248 249 250 252 253 255 256 258 260 263 264 266 268 270 272 274 276 278 279 281 282 284
215 213 211 211 214 214 212 212 210 209 211 208 206 208 210 214 216 216 217 215 217 224 225 223 222 226 231 230 228 227 228 227 228 230 231 229 229 229 229 229 229 230 230 231 231 232 233 234 235 236 237 238 240 241 241 242 242 242 243 243 244 245 246 248 249 250 251 253 254 255 257 258 260 261 263 265 267 269 271 273 275 277 278 280 281 283
213 212 211 211 211 210 209 211 211 210 209 206 206 207 209 213 214 215 217 215 218 226 226 224 223 225 229 229 227 230 232 229 227 229 230 229 228 228 228 228 228 228 229 229 231 232 232 233 234 235 237 238 240 241 242 243 243 243 243 244 244 245 247 248 249 250 252 253 254 256 257 258 259 260 262 264 266 269 271 272 274 276 277 279 281 283
215 216 214 212 210 207 206 210 210 210 210 208 206 205 207 211 212 213 216 217 221 226 225 223 223 226 231 230 227 231 233 231 229 229 230 230 229 228 227 227 228 228 229 230 232 233 234 234 235 236 237 239 240 241 242 243 244 244 244 244 244 246 247 248 250 251 252 253 254 256 257 258 259 260 262 264 266 268 270 272 273 275 277 279 280 283
216 221 219 213 211 208 206 209 209 209 210 209 207 206 207 209 210 213 217 219 223 225 224 223 224 230 235 233 229 230 232 232 232 232 233 232 231 229 227 227 229 230 232 233 234 236 237 237 238 239 240 241 242 242 243 243 243 244 245 245 245 246 248 249 250 251 251 253 254 256 257 259 260 261 262 264 266 267 269 271 273 274 276 278 280 283
212 220 218 212 211 209 209 210 210 208 209 211 211 208 209 211 212 215 217 218 221 223 224 224 225 228 231 232 229 229 232 234 234 234 234 233 231 229 227 228 229 231 234 236 237 238 239 239 239 240 241 242 243 243 244 244 244 244 244 245 245 246 247 248 250 250 251 253 254 256 257 259 260 261 262 264 266 267 268 270 271 274 276 279 282 284
212 221 219 212 211 210 210 211 210 208 210 213 212 210 213 215 214 217 219 218 219 223 226 225 227 229 231 234 233 231 233 234 234 234 232 231 230 227 227 229 230 233 235 236 237 239 240 240 240 241 241 242 243 243 244 244 244 243 244 244 244 245 247 248 249 250 251 253 254 255 256 258 259 260 262 263 264 266 267 268 271 274 277 280 282 284
213 221 221 213 211 211 211 212 212 211 211 211 210 212 216 216 215 218 221 222 221 224 228 227 229 235 236 237 236 231 232 233 234 234 232 230 230 228 229 231 232 234 235 237 238 238 240 240 240 241 241 242 242 242 242 242 242 242 242 243 244 245 246 247 248 249 250 251 252 254 255 256 258 259 260 260 262 264 266 269 272 274 277 279 282 284
212 217 219 212 211 213 212 212 215 214 211 210 211 213 215 215 216 218 220 224 224 226 231 229 229 234 234 235 237 233 233 234 233 234 233 232 230 230 231 232 234 235 236 238 239 239 240 240 240 241 241 242 242 242 242 241 241 241 242 242 243 244 245 246 247 248 248 249 251 252 254 255 256 256 257 259 261 264 266 269 272 274 277 279 281 283
212 214 219 213 212 215 213 213 217 216 213 212 213 213 212 214 217 218 218 222 223 226 232 231 231 232 231 233 236 233 232 233 232 233 234 233 231 231 232 233 235 236 237 239 240 241 242 241 241 241 241 242 242 241 241 241 241 241 241 242 242 243 243 244 245 245 247 248 249 251 252 253 254 255 257 259 261 264 267 269 272 274 277 279 282 284
214 213 218 216 215 217 216 215 216 216 215 215 215 214 214 216 218 218 220 221 222 226 231 233 233 234 233 234 235 233 232 231 230 231 233 232 231 231 232 233 234 236 237 238 239 241 242 242 242 241 241 241 241 241 241 241 241 240 240 241 240 241 242 242 243 244 245 247 247 248 250 252 254 256 258 260 262 265 268 270 273 275 277 280 283 285
216 216 218 217 216 216 217 217 215 215 216 216 215 214 215 217 218 220 222 222 222 225 228 231 234 236 236 235 234 234 233 230 228 230 231 231 231 232 233 234 235 236 237 238 239 240 241 241 241 241 241 241 240 240 240 240 240 239 239 239 239 239 239 240 241 243 244 245 246 248 250 253 255 257 259 261 264 266 269 271 274 276 278 281 283 285
218 217 216 216 216 216 219 220 217 217 217 217 217 216 215 216 216 219 223 224 223 226 227 228 233 238 237 235 235 236 234 232 231 232 232 232 231 232 234 235 235 236 237 238 239 240 240 240 240 240 240 240 239 239 238 238 238 237 237 237 237 237 238 239 240 242 244 245 247 249 252 254 256 258 260 262 265 267 270 273 275 277 280 282 284 286
216 215 216 218 219 220 222 223 220 219 220 219 220 218 217 217 216 218 223 224 224 227 229 229 233 238 237 235 236 238 237 236 235 234 234 234 232 232 233 235 235 236 237 238 239 240 240 239 239 238 238 238 238 237 237 236 236 236 235 235 236 237 238 239 241 242 245 247 249 251 253 255 257 259 261 264 266 268 271 274 276 279 281 283 285 287
216 215 215 218 221 224 226 226 224 222 221 222 222 219 217 219 219 219 223 224 224 226 227 230 234 237 237 237 237 239 240 239 236 233 232 233 234 233 233 234 235 236 237 238 239 240 240 239 238 237 237 237 237 236 236 235 235 235 235 236 237 237 238 240 242 244 246 248 250 252 254 256 258 260 263 265 267 270 272 275 277 280 281 283 285 287
215 216 213 212 217 221 223 226 225 222 221 223 223 221 219 219 218 220 224 224 226 227 225 227 232 235 236 238 239 240 240 239 237 233 232 234 235 234 234 235 235 236 237 238 239 239 239 238 237 237 236 236 236 235 235 234 235 235 236 237 237 238 240 242 244 246 248 249 251 253 255 257 259 261 264 266 269 271 273 276 278 280 281 283 285 287
215 216 213 211 214 217 219 222 222 220 221 223 224 222 220 218 217 221 224 225 227 229 225 226 230 234 237 239 240 240 238 239 239 237 237 238 237 234 233 234 235 236 237 237 238 238 238 238 237 237 236 236 235 234 235 235 236 236 237 238 239 241 242 244 246 248 249 251 252 254 256 258 260 263 265 268 270 272 274 277 278 280 282 284 285 287
216 220 219 218 219 220 221 224 222 218 219 223 224 222 221 221 220 221 224 225 226 228 229 230 230 233 238 240 241 241 238 239 241 240 239 239 237 234 234 235 236 237 237 238 238 238 238 238 238 237 236 236 235 235 236 236 237 238 239 240 242 243 244 246 247 249 250 252 253 255 257 260 262 264 267 269 271 273 275 277 279 280 282 284 286 288
216 221 222 222 224 225 224 225 223 219 220 223 224 224 223 223 222 223 226 227 226 228 233 233 231 233 237 237 239 241 240 240 242 241 239 238 237 237 237 237 237 237 238 239 239 239 238 238 238 237 236 236 236 236 237 238 239 240 241 242 243 245 246 247 248 249 251 253 255 257 260 262 264 266 268 270 272 274 275 277 279 280 282 285 286 288
218 222 222 222 226 228 227 227 225 223 224 224 223 224 224 224 224 226 229 229 228 230 234 234 232 234 237 237 239 241 240 240 241 240 240 240 239 240 239 238 237 238 239 240 240 240 239 239 239 238 237 237 237 238 239 240 241 242 242 244 245 245 247 248 249 250 252 254 256 259 261 264 266 267 269 271 272 273 275 277 279 281 283 285 287 288
219 222 223 221 223 228 229 229 227 225 227 227 226 225 224 224 225 227 229 230 230 233 236 236 236 237 238 238 240 242 242 243 244 243 242 241 241 240 239 238 238 239 240 241 241 241 240 240 239 238 238 238 238 239 240 241 242 242 243 244 245 246 248 249 250 251 253 256 258 260 263 264 266 268 269 270 272 273 275 277 279 281 283 285 287 288
220 222 224 220 222 228 231 229 228 227 228 229 230 229 226 226 226 228 229 230 231 234 236 237 239 240 238 238 241 244 244 244 245 244 243 243 242 241 240 239 239 240 242 242 242 242 241 240 240 239 239 239 240 240 241 242 243 243 244 245 246 247 249 250 251 253 255 257 259 261 263 265 266 268 269 271 272 274 276 278 280 282 283 285 287 288
218 221 224 221 222 228 230 227 227 229 231 233 233 230 227 227 228 229 231 231 231 234 236 238 239 240 239 239 241 244 244 244 245 246 245 245 244 242 240 240 240 242 243 243 243 243 243 242 241 240 239 240 240 241 242 242 243 244 245 246 247 249 250 252 253 255 256 258 260 261 263 265 266 268 269 271 273 275 277 278 280 282 284 285 287 288
216 218 222 221 223 229 231 227 225 226 231 236 235 229 226 228 230 231 234 234 233 234 235 237 239 240 239 239 240 243 245 246 247 247 246 246 244 243 243 242 243 244 245 244 244 244 244 243 241 240 240 240 241 242 243 243 244 245 246 247 249 250 251 252 254 255 257 258 260 261 263 265 266 268 270 272 274 275 277 279 281 282 284 286 288 289
216 217 221 222 223 227 229 226 223 224 230 236 236 228 225 227 228 230 233 234 233 234 236 239 240 239 238 238 239 240 242 244 246 246 246 246 245 245 245 245 246 247 247 245 245 245 246 245 243 242 242 242 243 243 244 245 246 247 248 249 250 251 252 253 254 255 257 258 260 261 263 265 267 268 270 272 274 275 277 279 281 283 285 287 288 289
215 217 221 223 223 224 224 221 221 227 233 238 240 234 229 228 228 231 235 235 235 236 238 241 242 239 238 239 239 239 241 244 246 247 247 247 247 247 247 248 249 249 249 248 247 247 247 246 245 245 244 244 244 245 245 246 247 248 249 249 250 251 252 253 254 255 257 258 260 261 263 265 267 269 270 272 274 276 277 280 282 284 285 287 288 289
215 217 220 221 222 223 221 219 224 234 239 241 242 238 234 232 232 235 239 240 239 238 239 241 242 241 241 242 241 241 243 246 249 249 248 248 249 249 249 250 250 250 250 250 248 247 246 246 245 245 245 245 245 245 246 246 247 248 249 250 251 251 252 253 254 255 257 258 260 261 263 265 267 269 271 272 274 276 278 280 282 284 285 287 288 289
215 216 218 221 223 223 223 226 233 243 246 242 240 238 234 233 233 234 240 243 240 237 238 240 242 242 242 242 243 244 246 249 251 251 248 248 249 250 251 251 252 252 252 251 250 248 247 246 246 246 246 246 245 246 246 246 247 248 248 250 251 251 252 253 254 255 256 258 260 261 263 265 267 269 271 273 274 276 278 280 282 284 285 287 288 289
218 219 219 221 225 224 224 230 236 242 244 240 237 238 235 233 232 233 239 244 241 236 236 238 240 241 241 242 243 244 246 250 252 251 249 249 250 250 251 252 253 253 253 252 251 250 249 248 248 248 247 246 246 247 247 247 247 247 248 250 251 251 252 253 254 255 256 258 260 262 264 266 268 269 271 273 275 276 278 280 282 284 285 286 288 289
222 225 223 223 227 226 226 232 235 238 242 239 236 237 234 230 229 233 243 247 242 237 237 238 240 241 241 242 241 241 245 250 252 251 251 251 251 251 251 251 252 253 252 251 250 250 249 249 249 249 249 248 247 248 247 247 248 248 249 250 250 251 252 253 254 255 257 258 260 262 265 267 268 270 271 273 275 276 278 280 282 284 285 287 288 290
221 224 223 223 227 228 229 234 238 241 243 241 239 238 233 229 228 232 245 249 242 236 238 238 240 242 242 241 241 242 245 249 252 254 253 253 253 252 251 251 251 251 251 251 250 250 249 249 249 249 249 248 248 248 247 248 248 249 250 250 251 251 252 253 254 255 257 259 261 263 265 267 268 270 271 273 275 276 279 280 282 284 286 287 288 289
220 222 223 225 227 228 229 234 241 244 243 242 243 239 231 229 230 233 242 246 241 239 241 240 240 243 244 242 242 244 247 249 252 254 254 252 252 252 252 252 251 251 251 251 251 251 250 250 249 249 249 249 249 248 248 248 249 250 250 251 251 252 252 253 254 255 257 259 261 263 265 267 268 270 271 273 275 277 279 281 283 284 286 287 288 289
219 222 225 226 226 229 231 234 243 248 243 239 241 238 230 229 235 240 245 247 243 242 244 243 243 244 244 242 242 244 247 248 250 252 253 252 251 251 252 252 252 253 253 252 252 251 251 251 251 250 250 250 249 248 248 248 249 250 250 250 251 252 252 253 254 255 257 259 261 263 265 266 268 269 271 273 275 277 279 281 283 284 285 286 288 289
221 221 225 227 227 230 232 233 240 248 243 233 233 238 238 240 244 246 247 247 245 243 244 245 245 244 243 243 244 246 247 249 250 251 252 253 253 253 253 253 253 254 254 254 253 252 252 252 252 251 251 251 249 249 249 249 249 250 250 250 251 251 252 252 254 255 257 259 261 262 264 266 268 270 271 274 276 278 279 281 282 284 285 286 288 290
225 224 227 230 230 229 230 233 239 245 241 233 236 242 243 245 249 247 244 245 247 245 244 246 247 246 244 244 246 247 247 248 249 250 251 252 253 254 254 254 254 254 254 254 254 254 253 253 253 253 252 251 250 250 250 249 249 250 250 250 251 251 251 253 254 256 257 259 260 262 264 266 268 270 272 274 276 277 279 280 282 283 285 286 288 290
230 231 232 234 235 235 238 241 245 248 244 241 246 249 243 242 248 247 244 246 247 246 245 246 247 247 246 245 245 247 248 250 250 251 251 252 253 254 254 255 255 255 255 255 255 255 255 255 254 254 253 252 251 251 251 250 249 249 250 251 251 251 252 253 255 256 257 259 260 262 264 266 268 270 272 274 275 277 278 280 282 283 285 287 288 290
236 236 236 238 241 244 247 246 245 247 245 243 248 251 245 244 248 248 247 249 249 248 248 248 248 249 248 247 246 247 249 250 251 252 253 253 253 254 255 255 256 256 256 256 256 256 256 256 255 255 254 254 253 252 252 252 251 250 250 251 251 252 253 254 255 256 257 259 260 262 264 266 268 270 272 273 275 277 279 280 282 283 285 287 288 290
238 235 236 238 239 241 245 246 243 244 244 244 248 251 248 247 249 250 250 250 249 248 249 249 250 251 250 249 249 249 250 251 252 253 254 254 254 255 256 257 258 259 259 259 258 258 257 256 255 255 255 255 255 254 253 253 252 252 252 252 252 253 254 254 255 256 257 258 260 262 263 265 268 270 271 273 275 277 279 281 283 284 285 287 288 290
236 234 236 239 239 240 245 247 246 246 246 246 248 249 248 247 249 251 251 251 250 250 250 251 251 251 252 254 254 253 253 253 254 254 256 257 258 259 260 261 261 261 260 259 258 257 257 256 256 255 255 255 255 255 254 253 253 252 251 251 252 252 253 254 254 255 257 258 260 262 264 266 268 269 272 274 276 278 280 281 282 283 285 287 289 291
235 234 237 240 241 244 247 247 246 248 248 248 248 249 249 249 249 250 251 251 251 251 252 252 252 251 252 254 255 255 255 256 256 257 257 259 260 261 262 262 261 260 260 259 258 258 258 257 257 256 255 255 255 255 254 253 253 252 251 251 252 252 252 253 254 255 257 258 260 262 264 266 268 270 272 275 276 278 280 281 282 283 286 288 290 292
235 237 240 240 240 243 246 244 243 247 250 249 248 248 250 250 250 251 251 251 251 251 252 253 253 253 252 253 253 254 255 257 258 259 259 260 262 262 262 262 261 260 259 258 258 259 258 258 257 256 256 256 255 255 254 253 252 252 252 252 252 252 252 253 254 255 257 259 261 262 264 267 269 271 273 275 276 278 279 280 282 284 287 289 291 293
237 238 239 239 242 246 246 242 242 247 252 250 247 247 249 250 250 251 252 252 252 253 252 252 253 254 255 255 254 254 256 258 259 259 261 262 262 261 261 260 259 258 258 257 257 258 258 258 257 256 255 256 255 255 255 254 253 253 253 253 253 253 253 253 255 256 258 260 261 263 265 267 269 271 273 275 276 277 279 281 283 286 288 290 292 294